Regional Weather Roundup
Issued by NWS

Home | Current Version | Previous Version | Graphics & Text | Print | Product List | Glossary On
Versions: 1 2 3 4 5 6 7 8 9 10 11 12 13 14 15 16 17 18 19 20 21 22 23 24 25 26 27 28 29 30 31 32 33 34 35 36 37 38 39 40 41 42 43 44 45 46 47 48 49 50
000
ASUS43 KMKX 132010
RWRWI

WISCONSIN REGIONAL WEATHER ROUNDUP
NATIONAL WEATHER SERVICE MILWAUKEE/SULLIVAN WI
200 PM CST SAT FEB 13 2016

NOTE: "FAIR" INDICATES FEW OR NO CLOUDS BELOW 12,000 FEET WITH NO
SIGNIFICANT WEATHER AND/OR OBSTRUCTIONS TO VISIBILITY.

WIZ001-002-006>008-014>016-023>028-132100-
NORTHWEST WISCONSIN

CITY           SKY/WX    TMP DP  RH WIND       PRES   REMARKS
SUPERIOR ARPT  SUNNY      8 -12  38 SW3       30.52F
ASHLAND        SUNNY      7 -11  43 VRB6      30.51F WCI  -3
HAYWARD        SUNNY      6 -15  37 CALM      30.48F
SIREN          SUNNY      7 -14  38 NW6       30.52F WCI  -3
CUMBERLAND     SUNNY      5 -13  43 SW7       30.49F WCI  -7
RICE LAKE      SUNNY      5 -13  43 CALM      30.53F
CHETEK         SUNNY      6 -13  41 N3        30.52F
LADYSMITH      SUNNY      7 -13  38 CALM      30.50F
EAU CLAIRE     SUNNY      5 -11  47 SW7       30.54F WCI  -7
MENOMONIE      SUNNY     16 -12  28 CALM      30.55F
NEW RICHMOND   SUNNY      6 -11  44 SE5       30.52F WCI  -2
OSCEOLA        SUNNY      8 -10  43 SE5       30.55F WCI   0
$$

WIZ003>005-009-010-017-018-132100-
NORTH CENTRAL WISCONSIN

CITY           SKY/WX    TMP DP  RH WIND       PRES   REMARKS
MANITOWISH WTR SUNNY      6  -7  55 SW6       30.40F WCI  -5
ARBOR VITAE    SUNNY      9  -4  55 W6        30.40F WCI  -1
WOODRUFF       SUNNY      9  -4  55 W6        30.40F WCI  -1
RHINELANDER    SUNNY      8  -7  50 W10       30.40F WCI  -6
EAGLE RIVER    SUNNY      8  -6  52 W9        30.39S WCI  -5
LAND O LAKES   MOSUNNY    9  -4  54 NW5       30.39S WCI   0
PHILLIPS       SUNNY      7 -11  44 SW3       30.44F
TOMAHAWK       SUNNY      8 -10  43 CALM      30.43F
MEDFORD        SUNNY      6 -10  47 SW9       30.44F WCI  -8
MERRILL        SUNNY     10 -10  41 W5        30.44F WCI   1
$$

WIZ029-030-035-036-043>047-132100-
CENTRAL WISCONSIN

CITY           SKY/WX    TMP DP  RH WIND       PRES   REMARKS
WAUSAU         SUNNY      7  -8  50 W8        30.45F WCI  -6
MOSINEE        SUNNY      7  -8  51 W9        30.48F WCI  -7
MARSHFIELD     SUNNY      5 -12  45 W10       30.47F WCI -10
STEVENS POINT  SUNNY      6  -9  48 W7        30.48F WCI  -5
WAUPACA        SUNNY     13  -8  37 W8        30.50F WCI   2
WAUTOMA        SUNNY     11 -10  38 W7        30.52F WCI   0
WISC RAPIDS    SUNNY      8 -12  39 NW7       30.51F WCI  -3
CAMP DOUGLAS   MOSUNNY    9  -9  43 W6        30.53F WCI  -1
$$

WIZ011>013-019>022-031-037>040-048>050-132100-
NORTHEAST WISCONSIN

CITY           SKY/WX    TMP DP  RH WIND       PRES   REMARKS
ANTIGO         SUNNY      8  -6  50 W7        30.41S WCI  -3
SHAWANO        SUNNY     14  -6  40 W7        30.48F WCI   4
OCONTO         SUNNY     12  -6  44 W7        30.48F WCI   2
STURGEON BAY   SUNNY      9  -6  52 W8        30.49F WCI  -4
GREEN BAY      SUNNY      9  -6  50 W7        30.50F WCI  -2
MANITOWOC      SUNNY     11  -4  51 W13       30.51F WCI  -4
APPLETON       SUNNY     10  -8  44 SW7       30.47F WCI   0
CLINTONVILLE   SUNNY     12  -9  37 W6        30.48F WCI   3
OSHKOSH        SUNNY      8  -7  50 W8        30.51F WCI  -4
$$

WIZ032>034-041-042-053>061-132100-
SOUTHWEST WISCONSIN

CITY           SKY/WX    TMP DP  RH WIND       PRES   REMARKS
LA CROSSE      SUNNY     10 -11  38 NW5       30.58F WCI   2
SPARTA         SUNNY     11 -10  39 NW7       30.55F WCI   0
VIROQUA        SUNNY      9 -11  40 CALM      30.51S
BOSCOBEL       SUNNY     13 -11  33 NW6       30.58F WCI   4
PRAIRIE DU CHI SUNNY     12 -11  35 W3        30.57F
PLATTEVILLE    SUNNY      9  -6  49 W3        30.54F
$$

WIZ056-057-062-063-064-067-068-132100-
SOUTH CENTRAL WISCONSIN

CITY           SKY/WX    TMP DP  RH WIND       PRES   REMARKS
REEDSBURG      SUNNY      8  -9  46 W7        30.53F WCI  -3
BARABOO/DELLS  SUNNY      9 -10  43 W6        30.52F WCI  -1
LONE ROCK      SUNNY     10  -9  42 SW6       30.57F WCI   0
MINERAL POINT  SUNNY     10  -8  44 CALM      30.52F
MADISON        MOSUNNY    9  -8  46 VRB3      30.54F
MIDDLETON      SUNNY     12  -8  41 W3        30.54F
WATERTOWN      SUNNY      9  -6  50 W7        30.54S WCI  -2
MONROE         SUNNY     12  -6  44 NW6       30.52F WCI   3
JANESVILLE     SUNNY     12  -8  40 NW7       30.54F WCI   2
$$

WIZ051-052-058>065-066-070>072-132100-
SOUTHEAST WISCONSIN

CITY           SKY/WX    TMP DP  RH WIND       PRES   REMARKS
MILWAUKEE      MOSUNNY   11  -9  40 W13       30.53F WCI  -4
WAUKESHA       SUNNY      3  -8  60 NW14      30.52F WCI -15
MILWAUKEE/TIMM SUNNY     10  -9  40 W12G17    30.53F WCI  -4
RACINE         SUNNY     13  -9  37 NW12      30.54F WCI  -1
BURLINGTON     SUNNY     11  -8  42 W9        30.53F WCI  -2
KENOSHA        SUNNY     13  -5  44 NW13      30.53F WCI  -2
FOND DU LAC    SUNNY      8  -7  50 W10       30.52F WCI  -6
SHEBOYGAN      SUNNY      8  -6  52 W10       30.51F WCI  -6
WEST BEND      SUNNY     10  -8  44 W8        30.50F WCI  -1
JUNEAU         SUNNY      7  -8  51 W8        30.53F WCI  -6
$$

LSZ147-162-132100-
LAKE SUPERIOR

STATION/POSITION TIME  TEMP    WIND        PRES    WAVE
                       AIR SEA DIR/SP/G            HT/PER
                 (UTC) (F)     (DEG/KT/KT) (MB)    (FT/S)
DEVILS ISLAND    2000    4     270/  8/ 10 1035.3F
SAXON HARBOR     1940   10                 1033.5F
$$

LMZ867-665-643>646-132100-
LAKE MICHIGAN

STATION/POSITION TIME  TEMP    WIND        PRES    WAVE
                       AIR SEA DIR/SP/G            HT/PER
                 (UTC) (F)     (DEG/KT/KT) (MB)    (FT/S)
CHAMBERS ISLAND  1900   12     310/ 12/ 18 1031.8F
SISTER BAY       1934   15     330/ 14/ 16   N/A
ALGOMA LAKESHORE 1941          330/  7/ 12   N/A
KEWAUNEE LAKESHO 1900    8     300/ 12/ 17 1032.0F
SHEBOYGAN LAKESH 2000    8     280/ 11/ 14 1035.1F
PORT WASHINGTON  1900   10     300/ 10/ 16 1034.9
MILWAUKEE LAKESH 1910   10     290/ 13/ 17   N/A
KENOSHA   LAKESH 2000   13     280/ 10/ 14 1033.9F
$$

TC  - TEMPERATURE IN CELSIUS
VSB - VISIBILITY IN STATUTE MILES
WCI - WIND CHILL INDEX
HX  - HEAT INDEX




USA.gov is the U.S. government's official web portal to all federal, state and local government web resources and services.